User: anonymous   Login
Location: Unspecified
(48.5670°N, 0.0000°E)
Time: 01:36:03
(UTC+00:00)
Language:

CAS-6 - Orbit

View from above orbital plane
View from above orbital plane
View from above satellite
View from above satellite

Ground track
Ground track

The orbit data is extracted from the following two-line orbital elements,

1 44881U 19093C   20297.72715116  .00000072  00000-0  16059-4 0  9991
2 44881  97.9489  12.8433 0014727 346.1355  13.9458 14.81421426 45688
Epoch (UTC): 23 October 2020 17:27:05
Eccentricity: 0.0014727
inclination: 97.9489°
perigee height: 614 km
apogee height: 635 km
right ascension of ascending node: 12.8433°
argument of perigee: 346.1355°
revolutions per day: 14.81421426
mean anomaly at epoch: 13.9458°
orbit number at epoch: 4568

The dashed part of the orbit path shows where the satellite is in the earth's shadow,  

DLR